Flag for USA

Past Weather in Brattleboro, Vermont, USA — Yesterday and Last 2 Weeks

Now
68 °F

Overcast.


Feels Like: 68 °F
Forecast: 82 / 60 °F
Wind: No wind

Location: Keene / Dillant

Current Time: Jul 3, 2020 at 10:21:06 pm

Latest Report: Jul 3, 2020 at 8:56 pm


Visibility: 10 mi

Pressure: 29.94 "Hg

Humidity: 82%

Dew Point: 62 °F

Location of BrattleboroLocation

Past Weather in Brattleboro — Graph

°F

Brattleboro Temperature Yesterday

Maximum temperature yesterday: 89 °F (at 3:56 pm)
Minimum temperature yesterday: 63 °F (at 2:36 am)
Average temperature yesterday: 70 °F

High & Low Weather Summary for the Past Weeks

 TemperatureHumidityPressure
High91 °F (Jun 21, 3:56 pm)100% (Jun 19, 12:56 am)30.14 "Hg (Jun 19, 12:56 am)
Low52 °F (Jun 25, 5:09 am)32% (Jun 25, 1:56 pm)29.66 "Hg (Jun 24, 3:56 am)
Average70 °F82%29.88 "Hg
* Reported Jun 18 8:56 pm — Jul 3 8:56 pm, Brattleboro. Weather by CustomWeather, © 2020

Note: Actual official high and low records may vary slightly from our data, if they occured in-between our weather recording intervals... More about our weather records

Brattleboro Weather History for the Previous 24 Hours

Scroll right to see more
 ConditionsComfort  
Time TempWeatherWind HumidityBarometerVisibility
8:56 pm
Fri, Jul 3
68 °FOvercast.No wind82%29.94 "Hg10 mi
7:56 pm70 °FOvercast.3 mph76%29.93 "Hg10 mi
7:20 pm70 °FOvercast.5 mph78%29.92 "Hg10 mi
6:56 pm71 °FMild.6 mph76%29.92 "Hg10 mi
5:56 pm71 °FOvercast.5 mph76%29.91 "Hg10 mi
4:56 pm72 °FOvercast.5 mph76%29.91 "Hg10 mi
3:56 pm72 °FOvercast.3 mph78%29.91 "Hg10 mi
2:56 pm72 °FMostly cloudy.7 mph81%29.90 "Hg10 mi
2:27 pm72 °FLight rain. Cloudy.3 mph83%29.90 "Hg10 mi
1:56 pm73 °FMostly cloudy.6 mph79%29.91 "Hg10 mi
12:56 pm74 °FOvercast.5 mph79%29.89 "Hg10 mi
11:56 am73 °FMostly cloudy.7 mph88%29.89 "Hg10 mi
10:56 am76 °FOvercast.5 mph77%29.88 "Hg10 mi
10:30 am75 °FMostly cloudy.No wind78%29.88 "Hg10 mi
9:56 am78 °FMostly cloudy.6 mph71%29.87 "Hg10 mi
8:56 am76 °FOvercast.6 mph77%29.86 "Hg10 mi
7:56 am72 °FMore clouds than sun.No wind91%29.85 "Hg10 mi
6:56 am70 °FBroken clouds.No wind93%29.84 "Hg10 mi
6:08 am68 °FBroken clouds.No wind94%29.84 "Hg8 mi
5:56 am67 °FMostly cloudy.3 mph100%29.84 "Hg7 mi
5:36 am66 °FFog.No wind100%29.83 "Hg6 mi
5:13 am66 °FFog.No wind100%29.82 "Hg5 mi
5:04 am66 °FFog.No wind100%29.82 "Hg2 mi
4:56 am67 °FFog.No wind100%29.83 "Hg1 mi
3:56 am68 °FOvercast.No wind100%29.81 "Hg9 mi
2:56 am69 °FOvercast.No wind96%29.80 "Hg9 mi
1:56 am69 °FPassing clouds.3 mph100%29.80 "Hg7 mi
12:56 am71 °FFog.No wind96%29.80 "Hg5 mi
12:22 am72 °FPassing clouds.No wind100%29.80 "Hg7 mi
11:56 pm
Thu, Jul 2
71 °FPassing clouds.No wind100%29.80 "Hg8 mi
10:56 pm73 °FPassing clouds.No wind97%29.80 "Hg10 mi
Weather by CustomWeather, © 2020

See weather overview